Simultaneous Nadir Overpasses (SNOs) Predictions

Prediction of SNOs between NOAA-20 and METOP-B Satellite Orbit:

Table of predicted SNOs for the next 14.0 days since TLE Epoch: 2/11/2023
Index Date (NOAA-20) Time (NOAA-20) Lat,Lon (NOAA-20) SZA (NOAA-20 ) Date (METOP-B) Time (METOP-B) Lat,Lon (METOP-B) SZA (METOP-B ) Distance(km) Time Diff (sec)
1 02/11/2023 04:19:57 72.89, 106.50 87.28 02/11/2023 04:21:10 72.82, 106.76 87.17 11.65 73
2 02/11/2023 05:10:39 -72.80, -85.99 92.84 02/11/2023 05:11:53 -72.77, -86.01 92.88 3.05 74
3 02/11/2023 06:01:25 72.79, 81.32 87.15 02/11/2023 06:02:32 72.80, 81.38 87.13 2.01 67
4 02/11/2023 06:52:09 -72.80,-111.38 92.86 02/11/2023 06:53:14 -72.80,-111.29 92.88 3.05 65
5 02/11/2023 07:42:55 72.80, 55.94 87.13 02/11/2023 07:43:54 72.78, 56.00 87.09 3.19 59
6 02/11/2023 08:33:38 -72.76,-136.66 92.93 02/11/2023 08:34:36 -72.78,-136.66 92.92 2.63 58
7 02/11/2023 09:24:24 72.76, 30.65 87.06 02/11/2023 09:25:16 72.76, 30.62 87.06 1.08 52
8 02/11/2023 10:15:08 -72.77,-162.05 92.94 02/11/2023 10:15:58 -72.76,-162.04 92.96 0.26 50
9 02/11/2023 11:05:54 72.76, 5.27 87.05 02/11/2023 11:06:38 72.74, 5.25 87.02 2.48 44
10 02/11/2023 11:56:38 -72.77, 172.56 92.96 02/11/2023 11:57:20 -72.74, 172.58 93.00 3.07 42
11 02/11/2023 12:47:24 72.77, -20.12 87.03 02/11/2023 12:47:59 72.77, -20.03 87.02 3.10 35
12 02/11/2023 13:38:07 -72.73, 147.28 93.03 02/11/2023 13:38:42 -72.73, 147.20 93.04 2.73 35
13 02/11/2023 14:28:53 72.73, -45.41 86.96 02/11/2023 14:29:21 72.75, -45.41 86.98 3.17 28
14 02/11/2023 15:19:37 -72.73, 121.89 93.05 02/11/2023 15:20:03 -72.76, 121.92 93.03 2.74 26
15 02/11/2023 16:10:23 72.73, -70.79 86.94 02/11/2023 16:10:43 72.73, -70.79 86.94 0.35 20
16 02/11/2023 17:01:07 -72.74, 96.50 93.06 02/11/2023 17:01:25 -72.74, 96.55 93.07 1.36 18
17 02/11/2023 17:51:53 72.74, -96.18 86.93 02/11/2023 17:52:05 72.72, -96.17 86.90 2.63 12
18 02/11/2023 18:42:36 -72.70, 71.22 93.13 02/11/2023 18:42:47 -72.72, 71.17 93.11 3.08 11
19 02/11/2023 19:33:22 72.69,-121.46 86.86 02/11/2023 19:33:27 72.70,-121.55 86.86 2.71 5
20 02/11/2023 20:24:06 -72.70, 45.83 93.15 02/11/2023 20:24:09 -72.70, 45.79 93.15 1.59 3
21 02/11/2023 21:14:52 72.70,-146.85 86.84 02/11/2023 21:14:48 72.73,-146.82 86.87 3.14 4
22 02/11/2023 22:05:36 -72.71, 20.45 93.17 02/11/2023 22:05:30 -72.73, 20.51 93.15 3.26 6
23 02/11/2023 22:56:22 72.71,-172.24 86.82 02/11/2023 22:56:10 72.71,-172.20 86.83 1.35 12
24 02/11/2023 23:47:06 -72.72, -4.94 93.18 02/11/2023 23:46:52 -72.71, -4.87 93.19 2.54 14
25 02/12/2023 00:37:52 72.72, 162.37 86.81 02/12/2023 00:37:32 72.69, 162.42 86.79 3.27 20
26 02/12/2023 01:28:34 -72.67, -30.23 93.25 02/12/2023 01:28:13 -72.69, -30.25 93.23 2.41 21
27 02/12/2023 02:19:20 72.67, 137.09 86.74 02/12/2023 02:18:53 72.67, 137.04 86.75 1.52 27
28 02/12/2023 03:10:04 -72.68, -55.61 93.27 02/12/2023 03:09:35 -72.68, -55.62 93.27 0.64 29
29 02/12/2023 04:00:50 72.68, 111.70 86.72 02/12/2023 04:00:15 72.65, 111.66 86.71 3.20 35
30 02/12/2023 04:51:34 -72.69, -81.00 93.29 02/12/2023 04:50:57 -72.66, -81.00 93.31 3.39 37
31 02/12/2023 05:42:20 72.69, 86.31 86.71 02/12/2023 05:41:36 72.68, 86.39 86.71 2.54 44
32 02/12/2023 06:33:03 -72.64,-106.29 93.36 02/12/2023 06:32:19 -72.64,-106.38 93.35 3.27 44
33 02/12/2023 07:23:49 72.64, 61.03 86.63 02/12/2023 07:22:58 72.66, 61.01 86.67 2.64 51
34 02/12/2023 08:14:33 -72.65,-131.67 93.37 02/12/2023 08:13:40 -72.67,-131.66 93.34 2.21 53
35 02/12/2023 09:05:19 72.65, 35.64 86.62 02/12/2023 09:04:20 72.64, 35.63 86.63 0.48 59
36 02/12/2023 09:56:03 -72.66,-157.06 93.39 02/12/2023 09:55:02 -72.65,-157.04 93.38 1.11 61
37 02/12/2023 10:46:49 72.65, 10.25 86.60 02/12/2023 10:45:42 72.63, 10.25 86.59 3.25 67
38 02/12/2023 11:37:32 -72.61, 177.65 93.46 02/12/2023 11:36:24 -72.63, 177.58 93.42 3.07 68
39 02/12/2023 12:28:18 72.61, -15.03 86.53 02/12/2023 12:27:04 72.61, -15.13 86.55 3.23 74
40 02/12/2023 13:19:01 -72.57, 152.37 93.53 02/12/2023 13:17:47 -72.56, 152.10 93.51 8.92 74
41 02/12/2023 14:09:42 72.31, -39.81 86.18 02/12/2023 14:08:31 72.33, -41.02 86.29 40.94 71
42 02/12/2023 15:00:25 -72.27, 127.59 93.88 02/12/2023 14:59:14 -72.29, 126.22 93.77 46.44 71
43 02/12/2023 15:51:06 72.01, -64.60 85.83 02/12/2023 15:49:59 72.00, -66.99 85.98 82.05 67
44 02/12/2023 16:41:49 -71.97, 102.79 94.23 02/12/2023 16:40:42 -71.96, 100.25 94.07 87.39 67



Historial Predications of SNOs between NOAA-20 and METOP-B
